Weather History for Wadesboro, NC

Change the Weather History Date:

Saturday, January 19, 2013

  Actual Average (KCLT) Record (KCLT)
Temperature  
Mean Temperature 39 °F 40 °F  
Max Temperature 56 °F 51 °F 69 °F (1929)
Min Temperature 22 °F 30 °F 6 °F (1994)
Degree Days  
Heating Degree Days 26 25  
Month to date heating degree days 475  
Since 1 July heating degree days 1812  
Cooling Degree Days 0 0  
Month to date cooling degree days 0  
Year to date cooling degree days 0  
Moisture  
Dew Point 27 °F    
Average Humidity 68    
Maximum Humidity 93    
Minimum Humidity 25    
Precipitation  
Precipitation 0.00 in 0.11 in 2.28 in (1936)
Month to date precipitation 2.13  
Year to date precipitation 2.13  
Snow  
Snow 0.00 in 0.10 in 4.10 in (1955)
Month to date snowfall 1.3  
Since 1 July snowfall 1.7  
Snow Depth -    
Sea Level Pressure  
Sea Level Pressure 30.36 in    
Wind  
Wind Speed 1 mph (SSW)    
Max Wind Speed 6 mph    
Max Gust Speed -    
Visibility 10 miles    
Events      
T = Trace of Precipitation, MM = Missing Value Source: NWS Daily Summary

Daily Weather History Graph

Daily Weather History Graph

Search for Another Location

Airport:

Trip Planner

Search our weather history database for the weather conditions in past years. The results will help you decide how hot, cold, wet, or windy it might be!

Date:

Astronomy

Jan. 19, 2013 Rise Set
Actual Time 7:26 AM EST 5:36 PM EST
Civil Twilight 6:59 AM EST 6:03 PM EST
Nautical Twilight 6:28 AM EST 6:34 PM EST
Astronomical Twilight 5:58 AM EST 7:04 PM EST
Moon 11:58 AM EST (1/19) 1:02 AM EST (1/19)
Length of Visible Light 11h 04m
Length of Day
10h 09m
First Quarter, 57% of the Moon is Illuminated
Jan 19
First Quarter
Jan 26
Full
Feb 3
Last Quarter
Feb 10
New
Feb 17
First Quarter

Hourly Weather History & Observations

Time (EST) Temp. Windchill Dew Point Humidity Pressure Visibility Wind Dir Wind Speed Gust Speed Precip Events Conditions
12:15 AM 27.9 °F - 26.1 °F 93% 30.51 in 10.0 mi Calm Calm - N/A   Clear
12:35 AM 27.1 °F - 25.3 °F 93% 30.51 in 10.0 mi Calm Calm - N/A   Clear
12:55 AM 26.6 °F - 24.8 °F 93% 30.51 in 10.0 mi Calm Calm - N/A   Clear
1:15 AM 27.1 °F - 25.3 °F 93% 30.51 in 10.0 mi Calm Calm - N/A   Clear
1:35 AM 26.6 °F - 24.8 °F 93% 30.51 in 10.0 mi Calm Calm - N/A   Clear
1:55 AM 27.0 °F - 25.2 °F 93% 30.51 in 10.0 mi Calm Calm - N/A   Clear
2:15 AM 26.2 °F - 24.4 °F 93% 30.50 in 10.0 mi Calm Calm - N/A   Clear
2:35 AM 25.2 °F - 23.2 °F 92% 30.50 in 10.0 mi Calm Calm - N/A   Clear
2:55 AM 25.7 °F - 23.9 °F 93% 30.50 in 10.0 mi Calm Calm - N/A   Clear
3:15 AM 26.2 °F - 24.4 °F 93% 30.49 in 10.0 mi Calm Calm - N/A   Clear
3:35 AM 27.0 °F - 25.0 °F 92% 30.49 in 10.0 mi Calm Calm - N/A   Clear
3:55 AM 26.4 °F - 24.4 °F 92% 30.49 in 10.0 mi Calm Calm - N/A   Clear
4:15 AM 26.4 °F - 24.3 °F 92% 30.49 in 10.0 mi Calm Calm - N/A   Clear
4:35 AM 25.0 °F - 22.6 °F 91% 30.49 in 10.0 mi Calm Calm - N/A   Clear
4:55 AM 24.3 °F - 21.9 °F 91% 30.48 in 10.0 mi Calm Calm - N/A   Clear
5:15 AM 24.1 °F - 21.7 °F 91% 30.48 in 10.0 mi Calm Calm - N/A   Clear
5:35 AM 24.4 °F - 22.1 °F 91% 30.48 in 10.0 mi Calm Calm - N/A   Clear
5:55 AM 23.9 °F - 21.4 °F 90% 30.48 in 10.0 mi Calm Calm - N/A   Clear
6:15 AM 23.5 °F - 21.2 °F 91% 30.48 in 10.0 mi Calm Calm - N/A   Clear
6:35 AM 23.2 °F - 21.0 °F 91% 30.48 in 10.0 mi Calm Calm - N/A   Clear
7:35 AM 22.8 °F - 20.5 °F 91% 30.47 in 10.0 mi Calm Calm - N/A   Clear
7:55 AM 23.7 °F - 21.4 °F 91% 30.47 in 10.0 mi Calm Calm - N/A   Clear
8:15 AM 25.3 °F - 23.0 °F 91% 30.48 in 10.0 mi Calm Calm - N/A   Clear
8:55 AM 30.4 °F - 28.2 °F 92% 30.49 in 10.0 mi Calm Calm - N/A   Clear
9:15 AM 31.5 °F - 28.9 °F 90% 30.49 in 10.0 mi Calm Calm - N/A   Clear
9:35 AM 33.3 °F - 30.2 °F 89% 30.49 in 10.0 mi Calm Calm - N/A   Clear
10:35 AM 39.6 °F - 32.5 °F 76% 30.48 in 10.0 mi Calm Calm - N/A   Clear
10:55 AM 41.2 °F - 31.6 °F 69% 30.47 in 10.0 mi Calm Calm - N/A   Clear
11:15 AM 43.7 °F - 31.5 °F 62% 30.45 in 10.0 mi Calm Calm - N/A   Clear
11:35 AM 46.2 °F 45.0 °F 28.6 °F 50% 30.43 in 10.0 mi SW 3.5 mph - N/A   Clear
12:15 PM 48.7 °F - 23.7 °F 38% 30.39 in 10.0 mi WSW 3.5 mph - N/A   Clear
12:35 PM 49.8 °F - 24.3 °F 37% 30.37 in 10.0 mi West 3.5 mph - N/A   Clear
12:55 PM 51.3 °F - 25.0 °F 36% 30.35 in 10.0 mi SW 3.5 mph - N/A   Clear
1:15 PM 52.2 °F - 22.8 °F 32% 30.34 in 10.0 mi SW 4.6 mph - N/A   Clear
1:35 PM 52.9 °F - 24.8 °F 34% 30.33 in 10.0 mi SSW 5.8 mph - N/A   Clear
1:55 PM 52.7 °F - 21.9 °F 30% 30.32 in 10.0 mi South 5.8 mph - N/A   Clear
2:15 PM 53.6 °F - 22.3 °F 30% 30.31 in 10.0 mi South 3.5 mph - N/A   Clear
2:35 PM 54.3 °F - 21.7 °F 28% 30.29 in 10.0 mi SSW 3.5 mph - N/A   Clear
2:55 PM 55.2 °F - 19.6 °F 25% 30.28 in 10.0 mi Calm Calm - N/A   Clear
3:15 PM 55.2 °F - 23.2 °F 29% 30.27 in 10.0 mi South 4.6 mph - N/A   Clear
3:35 PM 56.1 °F - 23.0 °F 28% 30.27 in 10.0 mi SE 4.6 mph - N/A   Clear
3:55 PM 56.3 °F - 23.0 °F 28% 30.27 in 10.0 mi SSW 3.5 mph - N/A   Clear
4:15 PM 56.3 °F - 24.3 °F 29% 30.26 in 10.0 mi South 5.8 mph - N/A   Clear
4:35 PM 55.9 °F - 23.2 °F 28% 30.25 in 10.0 mi SSW 4.6 mph - N/A   Clear
4:55 PM 55.2 °F - 25.0 °F 31% 30.24 in 10.0 mi Calm Calm - N/A   Clear
5:15 PM 54.1 °F - 25.5 °F 33% 30.24 in 10.0 mi South 3.5 mph - N/A   Clear
5:35 PM 50.4 °F - 30.4 °F 46% 30.24 in 10.0 mi Calm Calm - N/A   Clear
5:55 PM 45.9 °F - 33.1 °F 61% 30.23 in 10.0 mi Calm Calm - N/A   Clear
6:15 PM 44.4 °F - 32.4 °F 63% 30.23 in 10.0 mi Calm Calm - N/A   Clear
6:35 PM 43.2 °F - 33.1 °F 68% 30.24 in 10.0 mi Calm Calm - N/A   Clear
6:55 PM 43.9 °F 42.3 °F 35.4 °F 72% 30.24 in 10.0 mi SSW 3.5 mph - N/A   Clear
7:15 PM 41.0 °F 39.0 °F 34.7 °F 78% 30.25 in 10.0 mi South 3.5 mph - N/A   Clear
7:35 PM 42.3 °F - 34.2 °F 73% 30.25 in 10.0 mi Calm Calm - N/A   Clear
7:55 PM 43.2 °F 41.5 °F 33.6 °F 69% 30.25 in 10.0 mi South 3.5 mph - N/A   Clear
8:15 PM 45.0 °F 43.5 °F 33.4 °F 64% 30.24 in 10.0 mi South 3.5 mph - N/A   Clear
8:35 PM 44.2 °F 42.7 °F 33.8 °F 67% 30.24 in 10.0 mi South 3.5 mph - N/A   Clear
8:55 PM 44.1 °F 42.5 °F 33.3 °F 66% 30.24 in 10.0 mi South 3.5 mph - N/A   Clear
9:15 PM 43.2 °F 40.5 °F 33.8 °F 70% 30.23 in 10.0 mi South 4.6 mph - N/A   Clear
9:35 PM 43.5 °F 41.9 °F 33.4 °F 68% 30.23 in 10.0 mi South 3.5 mph - N/A   Clear
9:55 PM 43.5 °F 41.9 °F 33.3 °F 67% 30.22 in 10.0 mi SSW 3.5 mph - N/A   Clear
10:15 PM 42.1 °F 40.2 °F 33.8 °F 72% 30.21 in 10.0 mi SSW 3.5 mph - N/A   Clear
10:35 PM 42.4 °F 39.6 °F 33.4 °F 70% 30.21 in 10.0 mi SSW 4.6 mph - N/A   Clear
10:55 PM 41.9 °F 39.0 °F 33.6 °F 72% 30.20 in 10.0 mi SSW 4.6 mph - N/A   Clear
11:15 PM 42.6 °F 40.9 °F 33.4 °F 70% 30.19 in 10.0 mi South 3.5 mph - N/A   Clear
11:35 PM 42.8 °F - 33.1 °F 69% 30.19 in 10.0 mi Calm Calm - N/A   Clear
11:55 PM 40.1 °F - 33.8 °F 78% 30.19 in 10.0 mi Calm Calm - N/A   Clear